contact:dominique.lefevre@mio.osupytheas.fr, maurice.libes@osupytheas.fr, didier.mallarino@osupytheas.fr
Project:EMSO http://www.emso-fr.org/EMSO-France
Depth: 2436.0 m
Title:EMSO Ligure Ouest : Data MII capteur MICROCAT
DateTime_Computer,Latitude,Longitude,Temperature,Conductivity,Pressure,DateTime_Instrument
DateTime_Computer,Latitude,Longitude,degC,S m-1,dbar,DateTime_Instrument
2020-04-02T00:01:14Z,42.805,6.029,13.2964,4.59974,2470.124,2020-4-02T02:01:53Z
2020-04-02T00:04:18Z,42.805,6.029,13.2971,4.59976,2470.133,2020-4-02T02:04:56Z
2020-04-02T00:07:21Z,42.805,6.029,13.2969,4.59976,2470.133,2020-4-02T02:07:59Z
2020-04-02T00:10:24Z,42.805,6.029,13.2965,4.59975,2470.124,2020-4-02T02:11:03Z
2020-04-02T00:13:27Z,42.805,6.029,13.2968,4.59975,2470.11,2020-4-02T02:14:06Z
2020-04-02T00:16:31Z,42.805,6.029,13.2971,4.59974,2470.147,2020-4-02T02:17:09Z
2020-04-02T00:19:34Z,42.805,6.029,13.2968,4.59973,2470.147,2020-4-02T02:20:12Z
2020-04-02T00:22:37Z,42.805,6.029,13.2968,4.59972,2470.133,2020-4-02T02:23:16Z
2020-04-02T00:25:40Z,42.805,6.029,13.2968,4.59972,2470.133,2020-4-02T02:26:19Z
2020-04-02T00:28:44Z,42.805,6.029,13.2965,4.59971,2470.156,2020-4-02T02:29:22Z
2020-04-02T00:31:47Z,42.805,6.029,13.2966,4.59973,2470.147,2020-4-02T02:32:25Z
2020-04-02T00:34:50Z,42.805,6.029,13.2969,4.59973,2470.11,2020-4-02T02:35:28Z
2020-04-02T00:37:53Z,42.805,6.029,13.2968,4.59972,2470.147,2020-4-02T02:38:32Z
2020-04-02T00:40:56Z,42.805,6.029,13.2969,4.59973,2470.11,2020-4-02T02:41:35Z
2020-04-02T00:44:00Z,42.805,6.029,13.2968,4.59976,2470.087,2020-4-02T02:44:38Z
2020-04-02T00:47:03Z,42.805,6.029,13.2969,4.59972,2470.133,2020-4-02T02:47:41Z
2020-04-02T00:50:06Z,42.805,6.029,13.2968,4.59976,2470.147,2020-4-02T02:50:45Z
2020-04-02T00:53:10Z,42.805,6.029,13.2969,4.59973,2470.124,2020-4-02T02:53:48Z
2020-04-02T00:56:13Z,42.805,6.029,13.2965,4.59973,2470.11,2020-4-02T02:56:51Z
2020-04-02T00:59:16Z,42.805,6.029,13.2971,4.59973,2470.11,2020-4-02T02:59:55Z
2020-04-02T01:02:19Z,42.805,6.029,13.2970,4.59973,2470.11,2020-4-02T03:02:58Z
2020-04-02T01:05:22Z,42.805,6.029,13.2967,4.59973,2470.11,2020-4-02T03:06:01Z
2020-04-02T01:08:26Z,42.805,6.029,13.2967,4.59976,2470.11,2020-4-02T03:09:04Z
2020-04-02T01:11:29Z,42.805,6.029,13.2971,4.59975,2470.124,2020-4-02T03:12:07Z
2020-04-02T01:14:32Z,42.805,6.029,13.2967,4.59975,2470.147,2020-4-02T03:15:11Z
2020-04-02T01:17:35Z,42.805,6.029,13.2968,4.59975,2470.11,2020-4-02T03:18:14Z
2020-04-02T01:20:38Z,42.805,6.029,13.2970,4.59976,2470.124,2020-4-02T03:21:17Z
2020-04-02T01:23:42Z,42.805,6.029,13.2971,4.59974,2470.133,2020-4-02T03:24:20Z
2020-04-02T01:26:45Z,42.805,6.029,13.2969,4.59976,2470.133,2020-4-02T03:27:24Z
2020-04-02T01:29:48Z,42.805,6.029,13.2972,4.59973,2470.147,2020-4-02T03:30:27Z
2020-04-02T01:32:52Z,42.805,6.029,13.2968,4.59973,2470.11,2020-4-02T03:33:30Z
2020-04-02T01:35:55Z,42.805,6.029,13.2967,4.59973,2470.147,2020-4-02T03:36:33Z
2020-04-02T01:38:58Z,42.805,6.029,13.2968,4.59973,2470.133,2020-4-02T03:39:37Z
2020-04-02T01:42:01Z,42.805,6.029,13.2968,4.59978,2470.147,2020-4-02T03:42:40Z
2020-04-02T01:45:05Z,42.805,6.029,13.2969,4.59976,2470.11,2020-4-02T03:45:43Z
2020-04-02T01:48:08Z,42.805,6.029,13.2969,4.59974,2470.133,2020-4-02T03:48:46Z
2020-04-02T01:51:11Z,42.805,6.029,13.2968,4.59975,2470.147,2020-4-02T03:51:50Z
2020-04-02T01:54:14Z,42.805,6.029,13.2969,4.59978,2470.11,2020-4-02T03:54:53Z
2020-04-02T01:57:18Z,42.805,6.029,13.2967,4.59976,2470.156,2020-4-02T03:57:56Z
2020-04-02T02:00:21Z,42.805,6.029,13.2969,4.59977,2470.133,2020-4-02T04:00:59Z
2020-04-02T02:03:24Z,42.805,6.029,13.2967,4.59975,2470.124,2020-4-02T04:04:02Z
2020-04-02T02:06:27Z,42.805,6.029,13.2966,4.59976,2470.133,2020-4-02T04:07:06Z
2020-04-02T02:09:30Z,42.805,6.029,13.2968,4.59978,2470.147,2020-4-02T04:10:09Z
2020-04-02T02:12:34Z,42.805,6.029,13.2968,4.59975,2470.171,2020-4-02T04:13:12Z
2020-04-02T02:15:37Z,42.805,6.029,13.2968,4.59978,2470.124,2020-4-02T04:16:16Z
2020-04-02T02:18:40Z,42.805,6.029,13.2968,4.59977,2470.11,2020-4-02T04:19:19Z
2020-04-02T02:21:43Z,42.805,6.029,13.2968,4.59978,2470.147,2020-4-02T04:22:22Z
2020-04-02T02:24:47Z,42.805,6.029,13.2967,4.59975,2470.147,2020-4-02T04:25:25Z
2020-04-02T02:27:50Z,42.805,6.029,13.2969,4.59983,2470.133,2020-4-02T04:28:28Z
2020-04-02T02:30:53Z,42.805,6.029,13.2970,4.59980,2470.11,2020-4-02T04:31:32Z
2020-04-02T02:33:56Z,42.805,6.029,13.2971,4.59981,2470.11,2020-4-02T04:34:35Z
2020-04-02T02:37:00Z,42.805,6.029,13.2968,4.59985,2470.147,2020-4-02T04:37:38Z
2020-04-02T02:40:03Z,42.805,6.029,13.2970,4.59982,2470.147,2020-4-02T04:40:41Z
2020-04-02T02:43:06Z,42.805,6.029,13.2966,4.59981,2470.147,2020-4-02T04:43:45Z
2020-04-02T02:46:09Z,42.805,6.029,13.2969,4.59982,2470.133,2020-4-02T04:46:48Z
2020-04-02T02:49:13Z,42.805,6.029,13.2969,4.59979,2470.11,2020-4-02T04:49:51Z
2020-04-02T02:52:16Z,42.805,6.029,13.2968,4.59978,2470.133,2020-4-02T04:52:54Z
2020-04-02T02:55:19Z,42.805,6.029,13.2971,4.59982,2470.133,2020-4-02T04:55:58Z
2020-04-02T02:58:22Z,42.805,6.029,13.2968,4.59977,2470.147,2020-4-02T04:59:01Z
2020-04-02T03:01:26Z,42.805,6.029,13.2971,4.59983,2470.11,2020-4-02T05:02:04Z
2020-04-02T03:04:29Z,42.805,6.029,13.2969,4.59981,2470.147,2020-4-02T05:05:07Z
2020-04-02T03:07:32Z,42.805,6.029,13.2968,4.59985,2470.11,2020-4-02T05:08:11Z
2020-04-02T03:10:35Z,42.805,6.029,13.2968,4.59978,2470.133,2020-4-02T05:11:14Z
2020-04-02T03:13:39Z,42.805,6.029,13.2971,4.59979,2470.11,2020-4-02T05:14:17Z
2020-04-02T03:16:42Z,42.805,6.029,13.2967,4.59981,2470.171,2020-4-02T05:17:20Z
2020-04-02T03:19:45Z,42.805,6.029,13.2968,4.59985,2470.156,2020-4-02T05:20:24Z
2020-04-02T03:22:48Z,42.805,6.029,13.2969,4.59981,2470.133,2020-4-02T05:23:27Z
2020-04-02T03:25:51Z,42.805,6.029,13.2963,4.59979,2470.133,2020-4-02T05:26:30Z
2020-04-02T03:28:55Z,42.805,6.029,13.2965,4.59981,2470.133,2020-4-02T05:29:33Z
2020-04-02T03:31:58Z,42.805,6.029,13.2968,4.59976,2470.11,2020-4-02T05:32:37Z
2020-04-02T03:35:01Z,42.805,6.029,13.2971,4.59978,2470.156,2020-4-02T05:35:40Z
2020-04-02T03:38:04Z,42.805,6.029,13.2967,4.59978,2470.133,2020-4-02T05:38:43Z
2020-04-02T03:41:08Z,42.805,6.029,13.2966,4.59983,2470.133,2020-4-02T05:41:46Z
2020-04-02T03:44:11Z,42.805,6.029,13.2968,4.59977,2470.11,2020-4-02T05:44:49Z
2020-04-02T03:47:14Z,42.805,6.029,13.2969,4.59981,2470.133,2020-4-02T05:47:53Z
2020-04-02T03:50:17Z,42.805,6.029,13.2969,4.59979,2470.18,2020-4-02T05:50:56Z
2020-04-02T03:53:21Z,42.805,6.029,13.2971,4.59978,2470.11,2020-4-02T05:53:59Z
2020-04-02T03:56:24Z,42.805,6.029,13.2968,4.59983,2470.156,2020-4-02T05:57:02Z
2020-04-02T03:59:27Z,42.805,6.029,13.2970,4.59982,2470.156,2020-4-02T06:00:06Z
2020-04-02T04:02:30Z,42.805,6.029,13.2968,4.59981,2470.133,2020-4-02T06:03:09Z
2020-04-02T04:05:33Z,42.805,6.029,13.2969,4.59983,2470.11,2020-4-02T06:06:12Z
2020-04-02T04:08:37Z,42.805,6.029,13.2969,4.59983,2470.133,2020-4-02T06:09:15Z
2020-04-02T04:11:40Z,42.805,6.029,13.2968,4.59989,2470.133,2020-4-02T06:12:18Z
2020-04-02T04:14:43Z,42.805,6.029,13.2970,4.59999,2470.147,2020-4-02T06:15:22Z
2020-04-02T04:17:46Z,42.805,6.029,13.2978,4.59986,2470.133,2020-4-02T06:18:25Z
2020-04-02T04:20:50Z,42.805,6.029,13.2968,4.59987,2470.156,2020-4-02T06:21:28Z
2020-04-02T04:23:53Z,42.805,6.029,13.2971,4.59994,2470.133,2020-4-02T06:24:32Z
2020-04-02T04:26:56Z,42.805,6.029,13.2967,4.59985,2470.11,2020-4-02T06:27:35Z
2020-04-02T04:29:59Z,42.805,6.029,13.2971,4.59991,2470.11,2020-4-02T06:30:38Z
2020-04-02T04:33:03Z,42.805,6.029,13.2970,4.59988,2470.087,2020-4-02T06:33:41Z
2020-04-02T04:36:06Z,42.805,6.029,13.2973,4.59995,2470.124,2020-4-02T06:36:44Z
2020-04-02T04:39:09Z,42.805,6.029,13.2964,4.59991,2470.11,2020-4-02T06:39:48Z
2020-04-02T04:42:12Z,42.805,6.029,13.2973,4.59999,2470.156,2020-4-02T06:42:51Z
2020-04-02T04:45:16Z,42.805,6.029,13.2989,4.60016,2470.147,2020-4-02T06:45:54Z
2020-04-02T04:48:19Z,42.805,6.029,13.2975,4.59999,2470.1,2020-4-02T06:48:57Z
2020-04-02T04:51:22Z,42.805,6.029,13.2974,4.60003,2470.124,2020-4-02T06:52:01Z
2020-04-02T04:54:25Z,42.805,6.029,13.2973,4.60013,2470.124,2020-4-02T06:55:04Z
2020-04-02T04:57:29Z,42.805,6.029,13.2967,4.60001,2470.147,2020-4-02T06:58:07Z
2020-04-02T05:00:32Z,42.805,6.029,13.2973,4.60038,2470.124,2020-4-02T07:01:10Z
2020-04-02T05:03:35Z,42.805,6.029,13.2986,4.60017,2470.11,2020-4-02T07:04:14Z
2020-04-02T05:06:38Z,42.805,6.029,13.2979,4.60012,2470.133,2020-4-02T07:07:17Z
2020-04-02T05:09:41Z,42.805,6.029,13.2998,4.60004,2470.087,2020-4-02T07:10:20Z
2020-04-02T05:12:45Z,42.805,6.029,13.2982,4.60000,2470.1,2020-4-02T07:13:23Z
2020-04-02T05:15:48Z,42.805,6.029,13.2970,4.60016,2470.11,2020-4-02T07:16:27Z
2020-04-02T05:18:51Z,42.805,6.029,13.2981,4.60000,2470.133,2020-4-02T07:19:30Z
2020-04-02T05:21:55Z,42.805,6.029,13.3034,4.60003,2470.087,2020-4-02T07:22:33Z
2020-04-02T05:24:58Z,42.805,6.029,13.2968,4.59992,2470.147,2020-4-02T07:25:36Z
2020-04-02T05:28:01Z,42.805,6.029,13.2971,4.59983,2470.11,2020-4-02T07:28:40Z
2020-04-02T05:31:04Z,42.805,6.029,13.2967,4.59978,2470.133,2020-4-02T07:31:43Z
2020-04-02T05:34:08Z,42.805,6.029,13.2971,4.59981,2470.1,2020-4-02T07:34:46Z
2020-04-02T05:37:11Z,42.805,6.029,13.2979,4.59988,2470.124,2020-4-02T07:37:49Z
2020-04-02T05:40:14Z,42.805,6.029,13.2982,4.59996,2470.1,2020-4-02T07:40:53Z
2020-04-02T05:43:17Z,42.805,6.029,13.3029,4.60011,2470.124,2020-4-02T07:43:56Z
2020-04-02T05:46:20Z,42.805,6.029,13.2979,4.60015,2470.087,2020-4-02T07:46:59Z
2020-04-02T05:49:24Z,42.805,6.029,13.2982,4.60006,2470.11,2020-4-02T07:50:02Z
2020-04-02T05:52:27Z,42.805,6.029,13.3006,4.60009,2470.1,2020-4-02T07:53:05Z
2020-04-02T05:55:30Z,42.805,6.029,13.2977,4.60008,2470.087,2020-4-02T07:56:09Z
2020-04-02T05:58:33Z,42.805,6.029,13.2998,4.60010,2470.124,2020-4-02T07:59:12Z
2020-04-02T06:01:37Z,42.805,6.029,13.3034,4.60039,2470.077,2020-4-02T08:02:15Z
2020-04-02T06:04:40Z,42.805,6.029,13.3010,4.60014,2470.1,2020-4-02T08:05:18Z
2020-04-02T06:07:43Z,42.805,6.029,13.3011,4.60011,2470.124,2020-4-02T08:08:21Z
2020-04-02T06:10:46Z,42.805,6.029,13.3028,4.60020,2470.11,2020-4-02T08:11:25Z
2020-04-02T06:13:49Z,42.805,6.029,13.2993,4.60016,2470.063,2020-4-02T08:14:28Z
2020-04-02T06:16:53Z,42.805,6.029,13.2981,4.60009,2470.1,2020-4-02T08:17:31Z
2020-04-02T06:19:56Z,42.805,6.029,13.3010,4.60005,2470.11,2020-4-02T08:20:34Z
2020-04-02T06:22:59Z,42.805,6.029,13.3006,4.60007,2470.124,2020-4-02T08:23:38Z
2020-04-02T06:26:02Z,42.805,6.029,13.3014,4.60011,2470.1,2020-4-02T08:26:41Z
2020-04-02T06:29:06Z,42.805,6.029,13.3000,4.60013,2470.124,2020-4-02T08:29:44Z
2020-04-02T06:32:09Z,42.805,6.029,13.3031,4.60016,2470.077,2020-4-02T08:32:47Z
2020-04-02T06:35:12Z,42.805,6.029,13.3022,4.60021,2470.087,2020-4-02T08:35:51Z
2020-04-02T06:38:15Z,42.805,6.029,13.2992,4.60006,2470.1,2020-4-02T08:38:54Z
2020-04-02T06:41:18Z,42.805,6.029,13.2998,4.60030,2470.124,2020-4-02T08:41:57Z
2020-04-02T06:44:22Z,42.805,6.029,13.3024,4.60014,2470.063,2020-4-02T08:45:00Z
2020-04-02T06:47:25Z,42.805,6.029,13.3011,4.60009,2470.124,2020-4-02T08:48:04Z
2020-04-02T06:50:28Z,42.805,6.029,13.3000,4.59997,2470.077,2020-4-02T08:51:07Z
2020-04-02T06:53:32Z,42.805,6.029,13.2979,4.59998,2470.077,2020-4-02T08:54:10Z
2020-04-02T06:56:35Z,42.805,6.029,13.2992,4.59993,2470.1,2020-4-02T08:57:13Z
2020-04-02T06:59:38Z,42.805,6.029,13.2972,4.60005,2470.1,2020-4-02T09:00:17Z
2020-04-02T07:02:41Z,42.805,6.029,13.2971,4.59995,2470.049,2020-4-02T09:03:20Z
2020-04-02T07:05:45Z,42.805,6.029,13.2998,4.60006,2470.077,2020-4-02T09:06:23Z
2020-04-02T07:08:48Z,42.805,6.029,13.3003,4.60021,2470.077,2020-4-02T09:09:26Z
2020-04-02T07:11:51Z,42.805,6.029,13.2992,4.60045,2470.087,2020-4-02T09:12:30Z
2020-04-02T07:14:54Z,42.805,6.029,13.3005,4.60023,2470.1,2020-4-02T09:15:33Z
2020-04-02T07:17:57Z,42.805,6.029,13.3007,4.60019,2470.077,2020-4-02T09:18:36Z
2020-04-02T07:21:01Z,42.805,6.029,13.3017,4.59999,2470.063,2020-4-02T09:21:39Z
2020-04-02T07:24:04Z,42.805,6.029,13.3023,4.60021,2470.017,2020-4-02T09:24:42Z
2020-04-02T07:27:07Z,42.805,6.029,13.3020,4.60006,2470.04,2020-4-02T09:27:46Z
2020-04-02T07:30:10Z,42.805,6.029,13.3005,4.60011,2470.077,2020-4-02T09:30:49Z
2020-04-02T07:33:14Z,42.805,6.029,13.2998,4.60007,2470.077,2020-4-02T09:33:52Z
2020-04-02T07:36:17Z,42.805,6.029,13.3024,4.60019,2470.063,2020-4-02T09:36:56Z
2020-04-02T07:39:20Z,42.805,6.029,13.2993,4.60007,2470.077,2020-4-02T09:39:59Z
2020-04-02T07:42:23Z,42.805,6.029,13.2986,4.60001,2470.053,2020-4-02T09:43:02Z
2020-04-02T07:45:27Z,42.805,6.029,13.3021,4.60030,2470.04,2020-4-02T09:46:05Z
2020-04-02T07:48:30Z,42.805,6.029,13.3022,4.60003,2470.04,2020-4-02T09:49:08Z
2020-04-02T07:51:33Z,42.805,6.029,13.3017,4.60013,2470.077,2020-4-02T09:52:12Z
2020-04-02T07:54:36Z,42.805,6.029,13.3000,4.60011,2470.04,2020-4-02T09:55:15Z
2020-04-02T07:57:40Z,42.805,6.029,13.3001,4.59999,2470.077,2020-4-02T09:58:18Z
2020-04-02T08:00:43Z,42.805,6.029,13.2999,4.60003,2470.1,2020-4-02T10:01:21Z
2020-04-02T08:03:46Z,42.805,6.029,13.3009,4.60021,2470.087,2020-4-02T10:04:25Z
2020-04-02T08:06:49Z,42.805,6.029,13.2996,4.60009,2470.063,2020-4-02T10:07:28Z
2020-04-02T08:09:53Z,42.805,6.029,13.2990,4.60007,2470.087,2020-4-02T10:10:31Z
2020-04-02T08:12:56Z,42.805,6.029,13.2993,4.59996,2470.053,2020-4-02T10:13:35Z
2020-04-02T08:15:59Z,42.805,6.029,13.3000,4.60001,2470.063,2020-4-02T10:16:38Z
2020-04-02T08:19:03Z,42.805,6.029,13.2987,4.59999,2470.053,2020-4-02T10:19:41Z
2020-04-02T08:22:06Z,42.805,6.029,13.3026,4.60019,2470.087,2020-4-02T10:22:44Z
2020-04-02T08:25:09Z,42.805,6.029,13.2992,4.60006,2470.04,2020-4-02T10:25:48Z
2020-04-02T08:28:12Z,42.805,6.029,13.2983,4.60013,2470.087,2020-4-02T10:28:51Z
2020-04-02T08:31:16Z,42.805,6.029,13.2989,4.59988,2470.063,2020-4-02T10:31:54Z
2020-04-02T08:34:19Z,42.805,6.029,13.2994,4.59993,2470.063,2020-4-02T10:34:57Z
2020-04-02T08:37:22Z,42.805,6.029,13.2988,4.60000,2470.063,2020-4-02T10:38:01Z
2020-04-02T08:40:25Z,42.805,6.029,13.3001,4.59991,2470.053,2020-4-02T10:41:04Z
2020-04-02T08:43:28Z,42.805,6.029,13.2994,4.60004,2470.077,2020-4-02T10:44:07Z
2020-04-02T08:46:32Z,42.805,6.029,13.3000,4.59996,2470.04,2020-4-02T10:47:10Z
2020-04-02T08:49:35Z,42.805,6.029,13.2995,4.59999,2470.063,2020-4-02T10:50:14Z
2020-04-02T08:52:38Z,42.805,6.029,13.3002,4.59998,2470.063,2020-4-02T10:53:17Z
2020-04-02T08:55:42Z,42.805,6.029,13.2993,4.59995,2470.053,2020-4-02T10:56:20Z
2020-04-02T08:58:45Z,42.805,6.029,13.2999,4.60005,2470.077,2020-4-02T10:59:23Z
2020-04-02T09:01:48Z,42.805,6.029,13.2997,4.59996,2470.063,2020-4-02T11:02:27Z
2020-04-02T09:04:51Z,42.805,6.029,13.2995,4.59999,2470.077,2020-4-02T11:05:30Z
2020-04-02T09:07:55Z,42.805,6.029,13.2983,4.59987,2470.04,2020-4-02T11:08:33Z
2020-04-02T09:10:58Z,42.805,6.029,13.3002,4.60008,2470.077,2020-4-02T11:11:36Z
2020-04-02T09:14:01Z,42.805,6.029,13.3001,4.59991,2470.063,2020-4-02T11:14:40Z
2020-04-02T09:17:04Z,42.805,6.029,13.2987,4.59983,2470.03,2020-4-02T11:17:43Z
2020-04-02T09:20:07Z,42.805,6.029,13.3007,4.59991,2470.063,2020-4-02T11:20:46Z
2020-04-02T09:23:11Z,42.805,6.029,13.2993,4.59990,2470.1,2020-4-02T11:23:49Z
2020-04-02T09:26:14Z,42.805,6.029,13.2995,4.59986,2470.04,2020-4-02T11:26:53Z
2020-04-02T09:29:17Z,42.805,6.029,13.2996,4.59997,2470.087,2020-4-02T11:29:56Z
2020-04-02T09:32:21Z,42.805,6.029,13.2994,4.60005,2470.063,2020-4-02T11:32:59Z
2020-04-02T09:35:24Z,42.805,6.029,13.3019,4.59994,2470.063,2020-4-02T11:36:03Z
2020-04-02T09:38:27Z,42.805,6.029,13.3016,4.60005,2470.077,2020-4-02T11:39:06Z
2020-04-02T09:41:31Z,42.805,6.029,13.2999,4.59989,2470.063,2020-4-02T11:42:09Z
2020-04-02T09:44:34Z,42.805,6.029,13.2989,4.59996,2470.04,2020-4-02T11:45:12Z
2020-04-02T09:47:37Z,42.805,6.029,13.2991,4.60000,2470.077,2020-4-02T11:48:16Z
2020-04-02T09:50:40Z,42.805,6.029,13.3002,4.59994,2470.053,2020-4-02T11:51:19Z
2020-04-02T09:53:43Z,42.805,6.029,13.2997,4.60006,2470.04,2020-4-02T11:54:22Z
2020-04-02T09:56:47Z,42.805,6.029,13.3000,4.59993,2470.063,2020-4-02T11:57:25Z
2020-04-02T09:59:50Z,42.805,6.029,13.2991,4.59994,2470.077,2020-4-02T12:00:28Z
2020-04-02T10:02:53Z,42.805,6.029,13.3001,4.60013,2470.04,2020-4-02T12:03:32Z
2020-04-02T10:05:56Z,42.805,6.029,13.2994,4.59996,2470.063,2020-4-02T12:06:35Z
2020-04-02T10:09:00Z,42.805,6.029,13.2999,4.59987,2470.04,2020-4-02T12:09:38Z
2020-04-02T10:12:03Z,42.805,6.029,13.2993,4.60005,2470.053,2020-4-02T12:12:41Z
2020-04-02T10:15:06Z,42.805,6.029,13.3041,4.59991,2470.1,2020-4-02T12:15:45Z
2020-04-02T10:18:09Z,42.805,6.029,13.2992,4.59991,2470.077,2020-4-02T12:18:48Z
2020-04-02T10:21:13Z,42.805,6.029,13.3009,4.60008,2470.04,2020-4-02T12:21:51Z
2020-04-02T10:24:16Z,42.805,6.029,13.3001,4.60009,2470.077,2020-4-02T12:24:54Z
2020-04-02T10:27:19Z,42.805,6.029,13.2999,4.60011,2470.087,2020-4-02T12:27:58Z
2020-04-02T10:30:22Z,42.805,6.029,13.2994,4.59991,2470.04,2020-4-02T12:31:01Z
2020-04-02T10:33:26Z,42.805,6.029,13.2990,4.59998,2470.04,2020-4-02T12:34:04Z
2020-04-02T10:36:29Z,42.805,6.029,13.2989,4.59999,2470.077,2020-4-02T12:37:07Z
2020-04-02T10:39:32Z,42.805,6.029,13.2990,4.59988,2470.087,2020-4-02T12:40:11Z
2020-04-02T10:42:35Z,42.805,6.029,13.2978,4.59998,2470.087,2020-4-02T12:43:14Z
2020-04-02T10:45:38Z,42.805,6.029,13.3000,4.60003,2470.087,2020-4-02T12:46:17Z
2020-04-02T10:48:42Z,42.805,6.029,13.2984,4.60021,2470.063,2020-4-02T12:49:20Z
2020-04-02T10:51:45Z,42.805,6.029,13.2991,4.59989,2470.063,2020-4-02T12:52:24Z
2020-04-02T10:54:48Z,42.805,6.029,13.2994,4.59985,2470.053,2020-4-02T12:55:27Z
2020-04-02T10:57:51Z,42.805,6.029,13.2998,4.59995,2470.063,2020-4-02T12:58:30Z
2020-04-02T11:00:55Z,42.805,6.029,13.2995,4.60006,2470.1,2020-4-02T13:01:33Z
2020-04-02T11:03:58Z,42.805,6.029,13.3003,4.60014,2470.077,2020-4-02T13:04:36Z
2020-04-02T11:07:01Z,42.805,6.029,13.3007,4.59991,2470.04,2020-4-02T13:07:40Z
2020-04-02T11:10:04Z,42.805,6.029,13.2993,4.60005,2470.053,2020-4-02T13:10:43Z
2020-04-02T11:13:08Z,42.805,6.029,13.2997,4.60009,2470.1,2020-4-02T13:13:46Z
2020-04-02T11:16:11Z,42.805,6.029,13.2990,4.60003,2470.087,2020-4-02T13:16:50Z
2020-04-02T11:19:14Z,42.805,6.029,13.2991,4.60001,2470.063,2020-4-02T13:19:53Z
2020-04-02T11:22:18Z,42.805,6.029,13.2989,4.59986,2470.063,2020-4-02T13:22:56Z
2020-04-02T11:25:21Z,42.805,6.029,13.2979,4.60015,2470.077,2020-4-02T13:25:59Z
2020-04-02T11:28:24Z,42.805,6.029,13.2989,4.59991,2470.063,2020-4-02T13:29:03Z
2020-04-02T11:31:27Z,42.805,6.029,13.2990,4.60013,2470.1,2020-4-02T13:32:06Z
2020-04-02T11:34:31Z,42.805,6.029,13.2992,4.59996,2470.063,2020-4-02T13:35:09Z
2020-04-02T11:37:34Z,42.805,6.029,13.2989,4.60004,2470.087,2020-4-02T13:38:12Z
2020-04-02T11:40:37Z,42.805,6.029,13.2994,4.60002,2470.063,2020-4-02T13:41:16Z
2020-04-02T11:43:40Z,42.805,6.029,13.2986,4.59986,2470.077,2020-4-02T13:44:19Z
2020-04-02T11:46:43Z,42.805,6.029,13.2990,4.59991,2470.1,2020-4-02T13:47:22Z
2020-04-02T11:49:47Z,42.805,6.029,13.2983,4.59992,2470.063,2020-4-02T13:50:25Z
2020-04-02T11:52:50Z,42.805,6.029,13.2981,4.59994,2470.077,2020-4-02T13:53:29Z
2020-04-02T11:55:53Z,42.805,6.029,13.2988,4.59992,2470.063,2020-4-02T13:56:32Z
2020-04-02T11:58:57Z,42.805,6.029,13.2983,4.59988,2470.077,2020-4-02T13:59:35Z
2020-04-02T12:02:00Z,42.805,6.029,13.2996,4.59994,2470.063,2020-4-02T14:02:39Z
2020-04-02T12:05:03Z,42.805,6.029,13.2993,4.60007,2470.087,2020-4-02T14:05:42Z
2020-04-02T12:08:06Z,42.805,6.029,13.2990,4.59993,2470.04,2020-4-02T14:08:45Z
2020-04-02T12:11:10Z,42.805,6.029,13.2994,4.59986,2470.077,2020-4-02T14:11:48Z
2020-04-02T12:14:13Z,42.805,6.029,13.2983,4.59989,2470.063,2020-4-02T14:14:51Z
2020-04-02T12:17:16Z,42.805,6.029,13.2996,4.59990,2470.1,2020-4-02T14:17:55Z
2020-04-02T12:20:19Z,42.805,6.029,13.2995,4.59998,2470.04,2020-4-02T14:20:58Z
2020-04-02T12:23:23Z,42.805,6.029,13.2983,4.59992,2470.063,2020-4-02T14:24:01Z
2020-04-02T12:26:26Z,42.805,6.029,13.3002,4.59986,2470.063,2020-4-02T14:27:04Z
2020-04-02T12:29:29Z,42.805,6.029,13.2994,4.59986,2470.124,2020-4-02T14:30:08Z
2020-04-02T12:32:32Z,42.805,6.029,13.3000,4.59985,2470.087,2020-4-02T14:33:11Z
2020-04-02T12:35:36Z,42.805,6.029,13.2985,4.59991,2470.087,2020-4-02T14:36:14Z
2020-04-02T12:38:39Z,42.805,6.029,13.2990,4.59992,2470.03,2020-4-02T14:39:17Z
2020-04-02T12:41:42Z,42.805,6.029,13.3011,4.60011,2470.053,2020-4-02T14:42:21Z
2020-04-02T12:44:45Z,42.805,6.029,13.2987,4.59987,2470.063,2020-4-02T14:45:24Z
2020-04-02T12:47:49Z,42.805,6.029,13.2998,4.60011,2470.1,2020-4-02T14:48:27Z
2020-04-02T12:50:52Z,42.805,6.029,13.2996,4.60017,2470.11,2020-4-02T14:51:30Z
2020-04-02T12:53:55Z,42.805,6.029,13.2998,4.59983,2470.077,2020-4-02T14:54:34Z
2020-04-02T12:56:58Z,42.805,6.029,13.3006,4.59999,2470.077,2020-4-02T14:57:37Z
2020-04-02T13:00:02Z,42.805,6.029,13.2993,4.60000,2470.063,2020-4-02T15:00:40Z
2020-04-02T13:03:05Z,42.805,6.029,13.2991,4.59997,2470.053,2020-4-02T15:03:43Z
2020-04-02T13:06:08Z,42.805,6.029,13.2990,4.59986,2470.087,2020-4-02T15:06:47Z
2020-04-02T13:09:11Z,42.805,6.029,13.2987,4.59997,2470.087,2020-4-02T15:09:50Z
2020-04-02T13:12:15Z,42.805,6.029,13.2991,4.60002,2470.147,2020-4-02T15:12:53Z
2020-04-02T13:15:18Z,42.805,6.029,13.3011,4.60008,2470.077,2020-4-02T15:15:56Z
2020-04-02T13:18:21Z,42.805,6.029,13.2992,4.59991,2470.1,2020-4-02T15:19:00Z
2020-04-02T13:21:24Z,42.805,6.029,13.2979,4.60011,2470.077,2020-4-02T15:22:03Z
2020-04-02T13:24:28Z,42.805,6.029,13.3060,4.60019,2470.1,2020-4-02T15:25:06Z
2020-04-02T13:27:31Z,42.805,6.029,13.3026,4.60027,2470.1,2020-4-02T15:28:09Z
2020-04-02T13:30:34Z,42.805,6.029,13.3010,4.59990,2470.124,2020-4-02T15:31:13Z
2020-04-02T13:33:37Z,42.805,6.029,13.3003,4.60013,2470.133,2020-4-02T15:34:16Z
2020-04-02T13:36:41Z,42.805,6.029,13.2997,4.59998,2470.087,2020-4-02T15:37:19Z
2020-04-02T13:39:44Z,42.805,6.029,13.2998,4.60017,2470.124,2020-4-02T15:40:22Z
2020-04-02T13:43:32Z,42.805,6.029,13.3003,4.60007,2470.087,2020-4-02T15:43:26Z
2020-04-02T13:45:52Z,42.805,6.029,13.3000,4.60004,2470.063,2020-4-02T15:46:30Z
2020-04-02T13:48:55Z,42.805,6.029,13.2993,4.60024,2470.087,2020-4-02T15:49:33Z
2020-04-02T13:51:58Z,42.805,6.029,13.2997,4.60005,2470.063,2020-4-02T15:52:37Z
2020-04-02T13:55:01Z,42.805,6.029,13.3039,4.60008,2470.077,2020-4-02T15:55:40Z
2020-04-02T13:58:04Z,42.805,6.029,13.3006,4.60015,2470.1,2020-4-02T15:58:43Z
2020-04-02T14:01:08Z,42.805,6.029,13.3004,4.59991,2470.1,2020-4-02T16:01:46Z
2020-04-02T14:04:11Z,42.805,6.029,13.2999,4.60005,2470.11,2020-4-02T16:04:50Z
2020-04-02T14:07:14Z,42.805,6.029,13.2987,4.60026,2470.087,2020-4-02T16:07:53Z
2020-04-02T14:10:18Z,42.805,6.029,13.3012,4.60007,2470.1,2020-4-02T16:10:56Z
2020-04-02T14:13:21Z,42.805,6.029,13.2995,4.60009,2470.063,2020-4-02T16:13:59Z
2020-04-02T14:16:24Z,42.805,6.029,13.2991,4.60000,2470.087,2020-4-02T16:17:02Z
2020-04-02T14:19:27Z,42.805,6.029,13.3011,4.60011,2470.124,2020-4-02T16:20:06Z
2020-04-02T14:22:30Z,42.805,6.029,13.2986,4.60011,2470.077,2020-4-02T16:23:09Z
2020-04-02T14:25:34Z,42.805,6.029,13.2998,4.60010,2470.1,2020-4-02T16:26:12Z
2020-04-02T14:28:37Z,42.805,6.029,13.3003,4.60007,2470.124,2020-4-02T16:29:15Z
2020-04-02T14:31:40Z,42.805,6.029,13.3008,4.60009,2470.04,2020-4-02T16:32:19Z
2020-04-02T14:34:43Z,42.805,6.029,13.3000,4.59995,2470.1,2020-4-02T16:35:22Z
2020-04-02T14:37:47Z,42.805,6.029,13.3006,4.60018,2470.087,2020-4-02T16:38:25Z
2020-04-02T14:40:50Z,42.805,6.029,13.2998,4.59998,2470.063,2020-4-02T16:41:28Z
2020-04-02T14:43:53Z,42.805,6.029,13.2968,4.59999,2470.063,2020-4-02T16:44:32Z
2020-04-02T14:46:56Z,42.805,6.029,13.3000,4.59992,2470.087,2020-4-02T16:47:35Z
2020-04-02T14:50:00Z,42.805,6.029,13.2982,4.59989,2470.087,2020-4-02T16:50:38Z
2020-04-02T14:53:03Z,42.805,6.029,13.2993,4.60008,2470.063,2020-4-02T16:53:41Z
2020-04-02T14:56:06Z,42.805,6.029,13.2972,4.59986,2470.1,2020-4-02T16:56:45Z
2020-04-02T14:59:09Z,42.805,6.029,13.2968,4.59983,2470.077,2020-4-02T16:59:48Z
2020-04-02T15:02:13Z,42.805,6.029,13.2967,4.59996,2470.087,2020-4-02T17:02:51Z
2020-04-02T15:05:16Z,42.805,6.029,13.2968,4.59983,2470.063,2020-4-02T17:05:54Z
2020-04-02T15:08:19Z,42.805,6.029,13.2996,4.60006,2470.063,2020-4-02T17:08:58Z
2020-04-02T15:11:22Z,42.805,6.029,13.2989,4.59998,2470.1,2020-4-02T17:12:01Z
2020-04-02T15:14:25Z,42.805,6.029,13.2968,4.59991,2470.087,2020-4-02T17:15:04Z